CZ-6A DEB, 54967

Orbit data source: Space-Track

CZ-6A DEB, 54967 is space debris in SSO originally from a launch on Fri, 11 Nov 2022 UTC launched from the Taiyaun Space Center, China (TSC). Debris objects in space refer to the collection of defunct objects orbiting the Earth. Examples of debris include non-operational satellites, rocket bodies, and fragments generated from explosions, collisions, or faulty payload assembly.

Loading next visibility...
Identifier
54967, 2022-151TG
Orbit
SSO
Country
Flag of CNCN / PRC
Related business
Manufacturer
SAST
Mission
Spacecraft
Bus & Motor
Unknown
Mass
Unknown
Launch date (UTC)
2022-11-11 (4 years ago)
Launch vehicle
Unknown
Launch site
Taiyaun Space Center, China (TSC)
Object type
Payload
Rocket body
Debris
Shape & HBR
Unknown shape, 0.1 m
Radar Cross Section
Small (<0.1 m²)

Expand to show TLE details & history
Last TLE update: 2 days ago

TLE from 2 days ago
0 CZ-6A DEB
1 54967U 22151TG  26171.09516537  .00000114  00000-0  18874-3 0  9992
2 54967  99.0593  44.5113 0426070  68.5382 296.0621 13.31093522174880
Epoch: 2026-06-20T02:17Z
TLE epoch observation values (Epoch: 2026-06-20T02:17:02.287Z)
Latitude
-0.00009°
Longitude
101.93707°
Altitude
1,015.942 km
Speed
7.407 km/s
True Right ascension
02h 58m 02s
True Declination
0° 00' 00"
Sunlit
Object was in daylight at epoch
Visualization orbit readout
Latitude
Unknown
Longitude
Unknown
Altitude
Unknown
Speed
Unknown
Apparent Right ascension
Unknown
Apparent Declination
Unknown
Sunlit
N/A
Visualization observer readout
Local Sidereal Time
23:07:20
Azimuth
Unknown
Elevation
Unknown
Doppler factor
Unknown
Orbital elements
Apogee altitude
1,460.251 km
Perigee altitude
819.607 km
Semi-major axis
7,518.066 km
Eccentricity
0.04261
Inclination
99.0593°
RAAN
44.5113°
Arg. of periapsis
68.5382°
True anomaly
291.57577°
Mean anomaly
296.0621°
Eccentric anomaly
293.829°
Mean motion
3.32954 °/min
Orbital period
108.12 mins
BSTAR
0.00018874
Loading maneuver chart data...
Computing Atmospheric mass density...

Documentation

Showing up to 5 results
|